Location: Bothwell
(41.7170°N, 112.2589°W)
Time: 05:13:26
(UTC+00:00)

Courier 1B Rocket - All Passes

Search period start: 10 May 2026 00:00
Search period end: 20 May 2026 00:00
Orbit: 920 x 1201 km, 28.3° (Epoch: 9 May)

Date Brightness Start Highest point End Pass type
(mag) Time Alt. Az. Time Alt. Az. Time Alt. Az.
10 May - 16:11:55 10° S 16:14:16 12° SSE 16:16:41 10° SE daylight
10 May - 18:01:32 10° SW 18:06:36 23° S 18:11:55 10° ESE daylight
10 May - 19:53:42 10° WSW 19:59:13 26° S 20:05:03 10° SE daylight
10 May - 21:47:19 10° WSW 21:51:52 18° SSW 21:56:35 10° SSE daylight
11 May - 17:01:09 10° SSW 17:05:38 20° SSE 17:10:19 10° ESE daylight
11 May - 18:52:47 10° SW 18:58:10 26° S 19:03:51 10° SE daylight
11 May - 20:45:49 10° WSW 20:50:48 21° SSW 20:56:01 10° SSE daylight
12 May - 16:01:07 10° SSW 16:04:44 16° SSE 16:08:27 10° SE daylight
12 May - 17:52:00 10° SW 17:57:08 25° S 18:02:32 10° ESE daylight
12 May - 19:44:35 10° WSW 19:49:45 23° S 19:55:10 10° SE daylight
12 May - 21:39:12 10° SW 21:42:18 13° SSW 21:45:30 10° S daylight
13 May - 15:01:53 10° S 15:03:52 12° SSE 15:05:53 10° SE daylight
13 May - 16:51:23 10° SW 16:56:10 22° S 17:01:08 10° ESE daylight
13 May - 18:43:32 10° WSW 18:48:43 25° S 18:54:09 10° SE daylight
13 May - 20:37:11 10° SW 20:41:17 17° SSW 20:45:32 10° SSE daylight
14 May - 15:50:59 10° SSW 15:55:15 19° SSE 15:59:37 10° ESE daylight
14 May - 17:42:38 10° SW 17:47:42 25° S 17:53:01 10° SE daylight
14 May - 19:35:41 10° WSW 19:40:15 20° SSW 19:45:02 10° SSE daylight
15 May - 14:50:55 10° SSW 14:54:21 15° SSE 14:57:50 10° SE daylight
15 May - 16:41:50 10° SW 16:46:44 24° S 16:51:48 10° SE daylight
15 May - 18:34:28 10° WSW 18:39:16 22° S 18:44:17 10° SE daylight
15 May - 20:29:20 10° SW 20:31:44 12° SSW 20:34:11 10° S daylight
16 May - 13:51:37 10° S 13:53:30 11° SSE 13:55:23 10° SE daylight
16 May - 15:41:12 10° SW 15:45:48 22° S 15:50:29 10° ESE daylight
16 May - 17:33:24 10° SW 17:38:17 23° S 17:43:22 10° SE daylight
16 May - 19:27:10 10° SW 19:30:47 15° SSW 19:34:30 10° SSE daylight
17 May - 14:40:44 10° SSW 14:44:54 19° SSE 14:49:05 10° SE daylight
17 May - 16:32:28 10° SW 16:37:20 24° S 16:42:20 10° SE daylight
17 May - 18:25:37 10° SW 18:29:49 18° SSW 18:34:09 10° SSE daylight
18 May - 13:40:34 10° SSW 13:44:01 15° SSE 13:47:27 10° SE daylight
18 May - 15:31:37 10° SW 15:36:24 23° S 15:41:14 10° SE daylight
18 May - 17:24:21 10° WSW 17:28:52 21° S 17:33:31 10° SE daylight
18 May - 19:19:47 10° SW 19:21:16 11° SSW 19:22:45 10° S daylight
19 May - 12:41:02 10° S 12:43:08 12° SSE 12:45:14 10° SE daylight
19 May - 14:30:54 10° SW 14:35:28 21° S 14:40:02 10° SE daylight
19 May - 16:23:14 10° SW 16:27:56 22° S 16:32:44 10° SE daylight
19 May - 18:17:11 10° SW 18:20:21 14° SSW 18:23:34 10° S daylight
